Location: ?????????
(53.2086°N, 54.0693°E)
Time: 13:28:19
(UTC+00:00)

Cosmos 1812 - Pass Details

Date: 08 December 2019
Orbit: 516 x 523 km, 82.5° (Epoch: 23 January)

Event Time Altitude Azimuth Distance (km) Brightness Sun altitude
Rises 13:18:11 0° 161° (SSE) 2,644 6.4 -9.9°
Reaches altitude 10° 13:20:30 10° 149° (SSE) 1,761 5.3 -10.2°
Maximum altitude 13:23:49 28° 90° (E) 1,019 3.7 -10.7°
Enters shadow 13:26:48 12° 34° (NE) 1,655 4.8 -11.1°
